This is the latest recevied weather packets stored in our database for station/object KF0JHJ. If no packets are shown the sender has not sent any weather packets the latest 10 day(s).
| Time | Temp. | Humidity | Pressure | Rain* | Wind** | Luminosity | Snow |
|---|---|---|---|---|---|---|---|
| 1778049772 | 0.56° C | 73% | 1012 hPa | - | - | 0 W/m² | - |
| 1778049469 | 0° C | 74% | 1012.3 hPa | - | - | 0 W/m² | - |
| 1778049167 | 0° C | 74% | 1012.4 hPa | - | - | 0 W/m² | - |
| 1778048865 | 0° C | 73% | 1012.1 hPa | - | - | 0 W/m² | - |
| 1778048562 | 0.56° C | 72% | 1012.1 hPa | - | - | 0 W/m² | - |
| 1778048258 | 0.56° C | 71% | 1012 hPa | - | - | 0 W/m² | - |
| 1778047955 | 1.11° C | 70% | 1012.1 hPa | - | - | 0 W/m² | - |
| 1778047654 | 1.11° C | 70% | 1012.3 hPa | - | - | 0 W/m² | - |
| 1778047351 | 1.11° C | 72% | 1012.3 hPa | - | - | 0 W/m² | - |
| 1778047047 | 0.56° C | 74% | 1012.4 hPa | - | - | 0 W/m² | - |
| 1778046744 | 0° C | 74% | 1012.2 hPa | - | - | 0 W/m² | - |
| 1778046441 | 0° C | 75% | 1012.2 hPa | - | - | 0 W/m² | - |
| 1778046137 | 0° C | 75% | 1012.2 hPa | - | - | 0 W/m² | - |
| 1778045835 | 0° C | 73% | 1012 hPa | - | - | 0 W/m² | - |
| 1778045533 | 0° C | 74% | 1012.4 hPa | - | - | 0 W/m² | - |
| 1778045231 | 0° C | 73% | 1012.1 hPa | - | - | 0 W/m² | - |
| 1778044929 | 0.56° C | 72% | 1012.2 hPa | - | - | 0 W/m² | - |
| 1778044626 | 0.56° C | 71% | 1012.2 hPa | - | - | 0 W/m² | - |
| 1778044322 | 1.11° C | 70% | 1011.9 hPa | - | - | 0 W/m² | - |
| 1778044021 | 1.11° C | 69% | 1012 hPa | - | - | 0 W/m² | - |
| 1778043718 | 0.56° C | 70% | 1011.8 hPa | - | - | 0 W/m² | - |
| 1778043414 | 1.11° C | 70% | 1011.9 hPa | - | - | 0 W/m² | - |
| 1778043111 | 1.11° C | 68% | 1011.8 hPa | - | - | 0 W/m² | - |
| 1778042809 | 1.67° C | 67% | 1011.7 hPa | - | - | 0 W/m² | - |
| 1778042505 | 1.67° C | 65% | 1011.7 hPa | - | - | 0 W/m² | - |
* Rain since midnight (hover to see other rain measurements)
** Current wind speed in m/s (hover to see current wind gust speed)